Time,TemperatureF,DewpointF,PressureIn,WindDirection,WindDirectionDegrees,WindSpeedMPH,WindSpeedGustMPH,Humidity,HourlyPrecipIn,Conditions,Clouds,dailyrainin,SoftwareType,DateUTC
2013-11-10 00:00:00,44.7,42.5,30.32,ESE,102,0.0,0.0,92,0.00,,,0.00,Wunderground v.1.15,2013-11-10 05:00:00,
2013-11-10 00:05:00,44.6,42.4,30.32,ESE,102,0.0,0.0,92,0.00,,,0.00,Wunderground v.1.15,2013-11-10 05:05:00,
2013-11-10 00:10:00,44.7,42.5,30.32,ESE,103,0.0,2.0,92,0.00,,,0.00,Wunderground v.1.15,2013-11-10 05:10:00,
2013-11-10 00:15:00,44.8,42.6,30.31,ESE,103,1.0,2.0,92,0.00,,,0.00,Wunderground v.1.15,2013-11-10 05:15:00,
2013-11-10 00:20:00,44.7,42.5,30.31,ESE,102,1.0,1.0,92,0.00,,,0.00,Wunderground v.1.15,2013-11-10 05:20:00,
2013-11-10 00:25:00,44.7,42.8,30.31,ESE,102,0.0,1.0,93,0.00,,,0.00,Wunderground v.1.15,2013-11-10 05:25:00,
2013-11-10 00:30:00,44.8,42.9,30.31,ESE,103,1.0,1.0,93,0.00,,,0.00,Wunderground v.1.15,2013-11-10 05:30:00,
2013-11-10 00:40:00,44.9,43.0,30.31,ESE,103,0.0,0.0,93,0.00,,,0.00,Wunderground v.1.15,2013-11-10 05:40:00,
2013-11-10 00:45:00,44.9,43.0,30.31,ESE,103,0.0,0.0,93,0.00,,,0.00,Wunderground v.1.15,2013-11-10 05:45:00,
2013-11-10 00:50:00,44.9,43.0,30.31,ESE,102,0.0,0.0,93,0.00,,,0.00,Wunderground v.1.15,2013-11-10 05:50:00,
2013-11-10 00:55:00,45.0,43.1,30.31,ESE,103,0.0,0.0,93,0.00,,,0.00,Wunderground v.1.15,2013-11-10 05:55:00,
2013-11-10 01:00:00,44.9,43.0,30.30,ESE,103,0.0,0.0,93,0.00,,,0.00,Wunderground v.1.15,2013-11-10 06:00:00,
2013-11-10 01:10:00,44.9,43.0,30.30,ESE,102,0.0,0.0,93,0.00,,,0.00,Wunderground v.1.15,2013-11-10 06:10:00,
2013-11-10 01:15:00,44.9,43.3,30.30,ESE,103,0.0,0.0,94,0.00,,,0.00,Wunderground v.1.15,2013-11-10 06:15:00,
2013-11-10 01:20:00,44.9,43.3,30.30,ESE,103,0.0,0.0,94,0.00,,,0.00,Wunderground v.1.15,2013-11-10 06:20:00,
2013-11-10 01:25:00,44.9,43.3,30.30,ESE,102,0.0,0.0,94,0.00,,,0.00,Wunderground v.1.15,2013-11-10 06:25:00,
2013-11-10 01:35:00,44.8,43.2,30.30,ESE,103,0.0,0.0,94,0.00,,,0.00,Wunderground v.1.15,2013-11-10 06:35:00,
2013-11-10 01:40:00,44.7,43.1,30.30,ESE,103,0.0,0.0,94,0.00,,,0.00,Wunderground v.1.15,2013-11-10 06:40:00,
2013-11-10 01:45:00,44.7,43.1,30.30,ESE,103,0.0,0.0,94,0.00,,,0.00,Wunderground v.1.15,2013-11-10 06:45:00,
2013-11-10 01:55:00,44.7,43.1,30.30,ESE,103,0.0,0.0,94,0.00,,,0.00,Wunderground v.1.15,2013-11-10 06:55:00,
2013-11-10 02:00:00,44.7,43.1,30.30,ESE,103,0.0,0.0,94,0.00,,,0.00,Wunderground v.1.15,2013-11-10 07:00:00,
2013-11-10 02:10:00,45.1,43.5,30.29,ESE,103,1.0,1.0,94,0.00,,,0.00,Wunderground v.1.15,2013-11-10 07:10:00,
2013-11-10 02:15:00,45.4,43.8,30.28,East,82,1.0,1.0,94,0.00,,,0.00,Wunderground v.1.15,2013-11-10 07:15:00,
2013-11-10 02:25:00,45.7,44.1,30.29,East,82,0.0,2.0,94,0.00,,,0.00,Wunderground v.1.15,2013-11-10 07:25:00,
2013-11-10 02:35:00,45.5,43.9,30.29,East,82,1.0,2.0,94,0.00,,,0.00,Wunderground v.1.15,2013-11-10 07:35:00,
2013-11-10 02:45:00,45.6,44.0,30.30,East,82,0.0,1.0,94,0.00,,,0.00,Wunderground v.1.15,2013-11-10 07:45:00,
2013-11-10 02:55:00,45.4,43.8,30.29,East,82,1.0,1.0,94,0.00,,,0.00,Wunderground v.1.15,2013-11-10 07:55:00,
2013-11-10 03:00:00,45.4,43.8,30.29,East,82,0.0,0.0,94,0.00,,,0.00,Wunderground v.1.15,2013-11-10 08:00:00,
2013-11-10 03:05:00,45.4,43.8,30.29,East,82,0.0,0.0,94,0.00,,,0.00,Wunderground v.1.15,2013-11-10 08:05:00,
2013-11-10 03:15:00,45.4,43.8,30.29,East,82,0.0,0.0,94,0.00,,,0.00,Wunderground v.1.15,2013-11-10 08:15:00,
2013-11-10 03:25:00,45.5,43.9,30.29,East,82,0.0,0.0,94,0.00,,,0.00,Wunderground v.1.15,2013-11-10 08:25:00,
2013-11-10 03:30:00,45.5,43.9,30.29,East,82,0.0,0.0,94,0.00,,,0.00,Wunderground v.1.15,2013-11-10 08:30:00,
2013-11-10 03:35:00,45.5,43.9,30.29,East,82,0.0,0.0,94,0.00,,,0.00,Wunderground v.1.15,2013-11-10 08:35:00,
2013-11-10 03:45:00,45.5,43.9,30.29,East,82,0.0,0.0,94,0.00,,,0.00,Wunderground v.1.15,2013-11-10 08:45:00,
2013-11-10 03:55:00,45.6,44.0,30.28,East,82,0.0,0.0,94,0.00,,,0.00,Wunderground v.1.15,2013-11-10 08:55:00,
2013-11-10 04:00:00,45.5,43.6,30.28,East,82,0.0,0.0,93,0.00,,,0.00,Wunderground v.1.15,2013-11-10 09:00:00,
2013-11-10 04:10:00,45.4,43.5,30.28,East,82,0.0,0.0,93,0.00,,,0.00,Wunderground v.1.15,2013-11-10 09:10:00,
2013-11-10 04:20:00,45.5,43.9,30.27,East,82,0.0,0.0,94,0.00,,,0.00,Wunderground v.1.15,2013-11-10 09:20:00,
2013-11-10 04:30:00,45.6,43.7,30.28,East,81,1.0,1.0,93,0.00,,,0.00,Wunderground v.1.15,2013-11-10 09:30:00,
2013-11-10 04:35:00,45.5,43.6,30.28,East,81,0.0,1.0,93,0.00,,,0.00,Wunderground v.1.15,2013-11-10 09:35:00,
2013-11-10 04:40:00,45.5,43.6,30.28,East,80,0.0,0.0,93,0.00,,,0.00,Wunderground v.1.15,2013-11-10 09:40:00,
2013-11-10 04:45:00,45.5,43.6,30.28,East,80,0.0,0.0,93,0.00,,,0.00,Wunderground v.1.15,2013-11-10 09:45:00,
2013-11-10 04:55:00,45.4,43.5,30.28,East,81,0.0,0.0,93,0.00,,,0.00,Wunderground v.1.15,2013-11-10 09:55:00,
2013-11-10 05:00:00,45.4,43.5,30.28,East,80,0.0,0.0,93,0.00,,,0.00,Wunderground v.1.15,2013-11-10 10:00:00,
2013-11-10 05:05:00,45.2,43.3,30.28,East,80,0.0,0.0,93,0.00,,,0.00,Wunderground v.1.15,2013-11-10 10:05:00,
2013-11-10 05:15:00,45.0,43.1,30.28,East,81,0.0,0.0,93,0.00,,,0.00,Wunderground v.1.15,2013-11-10 10:15:00,
2013-11-10 05:20:00,45.0,43.1,30.28,East,80,0.0,0.0,93,0.00,,,0.00,Wunderground v.1.15,2013-11-10 10:20:00,
2013-11-10 05:30:00,45.2,43.6,30.28,East,81,0.0,0.0,94,0.00,,,0.00,Wunderground v.1.15,2013-11-10 10:30:00,
2013-11-10 05:40:00,45.3,43.7,30.29,East,80,0.0,0.0,94,0.00,,,0.00,Wunderground v.1.15,2013-11-10 10:40:00,
2013-11-10 05:45:00,45.4,43.8,30.28,East,80,0.0,0.0,94,0.00,,,0.00,Wunderground v.1.15,2013-11-10 10:45:00,
2013-11-10 05:50:00,45.5,43.9,30.29,East,81,0.0,1.0,94,0.00,,,0.00,Wunderground v.1.15,2013-11-10 10:50:00,
2013-11-10 05:55:00,45.5,43.9,30.29,East,81,0.0,1.0,94,0.00,,,0.00,Wunderground v.1.15,2013-11-10 10:55:00,
2013-11-10 06:00:00,45.6,43.7,30.29,East,80,0.0,0.0,93,0.00,,,0.00,Wunderground v.1.15,2013-11-10 11:00:00,
2013-11-10 06:10:00,45.6,44.0,30.29,East,81,0.0,0.0,94,0.00,,,0.00,Wunderground v.1.15,2013-11-10 11:10:00,
2013-11-10 06:15:00,45.6,44.0,30.29,East,81,0.0,0.0,94,0.00,,,0.00,Wunderground v.1.15,2013-11-10 11:15:00,
2013-11-10 06:25:00,45.8,43.9,30.29,East,81,0.0,0.0,93,0.00,,,0.00,Wunderground v.1.15,2013-11-10 11:25:00,
2013-11-10 06:30:00,45.9,44.0,30.29,East,81,0.0,0.0,93,0.00,,,0.00,Wunderground v.1.15,2013-11-10 11:30:00,
2013-11-10 06:40:00,46.0,44.1,30.29,East,80,0.0,0.0,93,0.00,,,0.00,Wunderground v.1.15,2013-11-10 11:40:00,
2013-11-10 06:45:00,46.0,44.1,30.29,East,81,0.0,0.0,93,0.00,,,0.00,Wunderground v.1.15,2013-11-10 11:45:00,
2013-11-10 06:50:00,46.0,43.8,30.29,East,81,0.0,0.0,92,0.00,,,0.00,Wunderground v.1.15,2013-11-10 11:50:00,
2013-11-10 06:55:00,46.1,43.6,30.29,East,80,0.0,0.0,91,0.00,,,0.00,Wunderground v.1.15,2013-11-10 11:55:00,
2013-11-10 07:00:00,46.3,44.1,30.30,East,82,0.0,1.0,92,0.00,,,0.00,Wunderground v.1.15,2013-11-10 12:00:00,
2013-11-10 07:10:00,46.4,44.2,30.30,East,82,0.0,0.0,92,0.00,,,0.00,Wunderground v.1.15,2013-11-10 12:10:00,
2013-11-10 07:20:00,46.4,44.2,30.30,East,82,0.0,0.0,92,0.00,,,0.00,Wunderground v.1.15,2013-11-10 12:20:00,
2013-11-10 07:30:00,46.8,44.0,30.30,East,82,0.0,0.0,90,0.00,,,0.00,Wunderground v.1.15,2013-11-10 12:30:00,
2013-11-10 07:40:00,47.1,43.1,30.30,SE,129,0.0,0.0,86,0.00,,,0.00,Wunderground v.1.15,2013-11-10 12:40:00,
2013-11-10 07:45:00,47.4,42.2,30.30,South,175,0.0,0.0,82,0.00,,,0.00,Wunderground v.1.15,2013-11-10 12:45:00,
2013-11-10 07:50:00,47.8,42.9,30.31,South,175,0.0,0.0,83,0.00,,,0.00,Wunderground v.1.15,2013-11-10 12:50:00,
2013-11-10 08:00:00,48.6,42.7,30.31,SW,236,1.0,1.0,80,0.00,,,0.00,Wunderground v.1.15,2013-11-10 13:00:00,
2013-11-10 08:10:00,49.7,43.5,30.31,SW,236,0.0,0.0,79,0.00,,,0.00,Wunderground v.1.15,2013-11-10 13:10:00,
2013-11-10 08:15:00,50.2,43.3,30.31,SW,236,0.0,0.0,77,0.00,,,0.00,Wunderground v.1.15,2013-11-10 13:15:00,
2013-11-10 08:25:00,50.9,43.9,30.31,NW,307,0.0,2.0,77,0.00,,,0.00,Wunderground v.1.15,2013-11-10 13:25:00,
2013-11-10 08:30:00,51.3,43.6,30.31,SW,219,1.0,1.0,75,0.00,,,0.00,Wunderground v.1.15,2013-11-10 13:30:00,
2013-11-10 08:40:00,51.9,44.2,30.32,SW,223,1.0,1.0,75,0.00,,,0.00,Wunderground v.1.15,2013-11-10 13:40:00,
2013-11-10 08:45:00,52.2,44.2,30.31,South,179,1.0,1.0,74,0.00,,,0.00,Wunderground v.1.15,2013-11-10 13:45:00,
2013-11-10 08:50:00,52.5,44.1,30.32,WSW,246,1.0,1.0,73,0.00,,,0.00,Wunderground v.1.15,2013-11-10 13:50:00,
2013-11-10 09:00:00,52.9,44.1,30.31,East,86,1.0,1.0,72,0.00,,,0.00,Wunderground v.1.15,2013-11-10 14:00:00,
2013-11-10 09:05:00,53.2,44.4,30.31,East,84,1.0,1.0,72,0.00,,,0.00,Wunderground v.1.15,2013-11-10 14:05:00,
2013-11-10 09:15:00,53.5,44.7,30.32,WSW,254,1.0,1.0,72,0.00,,,0.00,Wunderground v.1.15,2013-11-10 14:15:00,
2013-11-10 09:20:00,53.6,44.8,30.32,WSW,248,1.0,1.0,72,0.00,,,0.00,Wunderground v.1.15,2013-11-10 14:20:00,
2013-11-10 09:30:00,54.0,44.8,30.32,WNW,284,1.0,1.0,71,0.00,,,0.00,Wunderground v.1.15,2013-11-10 14:30:00,
2013-11-10 09:40:00,54.3,45.1,30.31,West,261,2.0,2.0,71,0.00,,,0.00,Wunderground v.1.15,2013-11-10 14:40:00,
2013-11-10 09:45:00,54.5,44.9,30.31,West,259,2.0,2.0,70,0.00,,,0.00,Wunderground v.1.15,2013-11-10 14:45:00,
2013-11-10 09:50:00,54.8,45.6,30.32,West,271,1.0,2.0,71,0.00,,,0.00,Wunderground v.1.15,2013-11-10 14:50:00,
2013-11-10 10:00:00,55.4,45.4,30.32,West,275,1.0,1.0,69,0.00,,,0.00,Wunderground v.1.15,2013-11-10 15:00:00,
2013-11-10 10:05:00,55.8,45.4,30.31,WSW,240,1.0,1.0,68,0.00,,,0.00,Wunderground v.1.15,2013-11-10 15:05:00,
2013-11-10 10:15:00,56.8,44.7,30.31,WNW,302,2.0,2.0,64,0.00,,,0.00,Wunderground v.1.15,2013-11-10 15:15:00,
2013-11-10 10:25:00,58.1,44.7,30.31,WNW,294,3.0,6.0,61,0.00,,,0.00,Wunderground v.1.15,2013-11-10 15:25:00,
2013-11-10 10:30:00,59.0,44.7,30.31,WNW,295,3.0,3.0,59,0.00,,,0.00,Wunderground v.1.15,2013-11-10 15:30:00,
2013-11-10 10:35:00,59.8,44.5,30.31,NW,322,2.0,3.0,57,0.00,,,0.00,Wunderground v.1.15,2013-11-10 15:35:00,
2013-11-10 10:40:00,60.6,44.8,30.30,NW,319,3.0,6.0,56,0.00,,,0.00,Wunderground v.1.15,2013-11-10 15:40:00,
2013-11-10 10:50:00,61.2,43.9,30.30,West,270,3.0,4.0,53,0.00,,,0.00,Wunderground v.1.15,2013-11-10 15:50:00,
2013-11-10 10:55:00,61.1,42.3,30.30,North,355,3.0,6.0,50,0.00,,,0.00,Wunderground v.1.15,2013-11-10 15:55:00,
2013-11-10 11:00:00,61.2,42.9,30.30,North,11,4.0,4.0,51,0.00,,,0.00,Wunderground v.1.15,2013-11-10 16:00:00,
2013-11-10 11:10:00,62.5,42.5,30.30,WSW,241,3.0,4.0,48,0.00,,,0.00,Wunderground v.1.15,2013-11-10 16:10:00,
2013-11-10 11:15:00,62.3,42.3,30.30,WNW,290,3.0,4.0,48,0.00,,,0.00,Wunderground v.1.15,2013-11-10 16:15:00,
2013-11-10 11:20:00,62.1,42.7,30.30,WNW,302,3.0,3.0,49,0.00,,,0.00,Wunderground v.1.15,2013-11-10 16:20:00,
2013-11-10 11:25:00,62.0,42.6,30.29,NW,326,3.0,3.0,49,0.00,,,0.00,Wunderground v.1.15,2013-11-10 16:25:00,
2013-11-10 11:30:00,62.5,43.6,30.29,North,360,3.0,3.0,50,0.00,,,0.00,Wunderground v.1.15,2013-11-10 16:30:00,
2013-11-10 11:40:00,63.9,43.3,30.29,West,271,2.0,3.0,47,0.00,,,0.00,Wunderground v.1.15,2013-11-10 16:40:00,
2013-11-10 11:45:00,64.4,43.2,30.29,North,355,2.0,4.0,46,0.00,,,0.00,Wunderground v.1.15,2013-11-10 16:45:00,
2013-11-10 11:55:00,65.6,41.9,30.28,NNE,22,4.0,4.0,42,0.00,,,0.00,Wunderground v.1.15,2013-11-10 16:55:00,
2013-11-10 12:00:00,66.1,42.9,30.27,WNW,290,4.0,4.0,43,0.00,,,0.00,Wunderground v.1.15,2013-11-10 17:00:00,
2013-11-10 12:05:00,66.5,42.7,30.27,WSW,257,3.0,4.0,42,0.00,,,0.00,Wunderground v.1.15,2013-11-10 17:05:00,
2013-11-10 12:10:00,66.4,41.3,30.27,WSW,252,3.0,3.0,40,0.00,,,0.00,Wunderground v.1.15,2013-11-10 17:10:00,
2013-11-10 12:15:00,66.7,41.6,30.26,NE,55,2.0,3.0,40,0.00,,,0.00,Wunderground v.1.15,2013-11-10 17:15:00,
2013-11-10 12:25:00,67.4,40.2,30.26,West,261,3.0,3.0,37,0.00,,,0.00,Wunderground v.1.15,2013-11-10 17:25:00,
2013-11-10 12:30:00,68.0,40.7,30.26,NW,311,3.0,4.0,37,0.00,,,0.00,Wunderground v.1.15,2013-11-10 17:30:00,
2013-11-10 12:35:00,68.3,41.0,30.25,NE,48,3.0,4.0,37,0.00,,,0.00,Wunderground v.1.15,2013-11-10 17:35:00,
2013-11-10 12:45:00,69.2,41.1,30.25,West,267,2.0,3.0,36,0.00,,,0.00,Wunderground v.1.15,2013-11-10 17:45:00,
2013-11-10 12:55:00,69.9,41.7,30.24,SW,217,2.0,4.0,36,0.00,,,0.00,Wunderground v.1.15,2013-11-10 17:55:00,
2013-11-10 13:00:00,69.7,40.8,30.24,WSW,245,3.0,3.0,35,0.00,,,0.00,Wunderground v.1.15,2013-11-10 18:00:00,
2013-11-10 13:10:00,70.0,41.1,30.24,NNW,334,2.0,4.0,35,0.00,,,0.00,Wunderground v.1.15,2013-11-10 18:10:00,
2013-11-10 13:15:00,70.2,41.3,30.24,NW,311,3.0,4.0,35,0.00,,,0.00,Wunderground v.1.15,2013-11-10 18:15:00,
2013-11-10 13:20:00,70.2,42.0,30.23,NE,45,3.0,3.0,36,0.00,,,0.00,Wunderground v.1.15,2013-11-10 18:20:00,
2013-11-10 13:25:00,70.6,41.6,30.23,WNW,291,2.0,3.0,35,0.00,,,0.00,Wunderground v.1.15,2013-11-10 18:25:00,
2013-11-10 13:35:00,71.6,41.7,30.22,SSW,200,2.0,3.0,34,0.00,,,0.00,Wunderground v.1.15,2013-11-10 18:35:00,
2013-11-10 13:40:00,71.9,42.0,30.22,NW,325,3.0,3.0,34,0.00,,,0.00,Wunderground v.1.15,2013-11-10 18:40:00,
2013-11-10 13:45:00,71.7,41.0,30.22,NE,38,3.0,4.0,33,0.00,,,0.00,Wunderground v.1.15,2013-11-10 18:45:00,
2013-11-10 13:50:00,71.7,41.0,30.22,WNW,294,3.0,4.0,33,0.00,,,0.00,Wunderground v.1.15,2013-11-10 18:50:00,
2013-11-10 13:55:00,71.5,41.6,30.22,NNW,329,4.0,4.0,34,0.00,,,0.00,Wunderground v.1.15,2013-11-10 18:55:00,
2013-11-10 14:00:00,72.0,42.8,30.21,North,5,4.0,6.0,35,0.00,,,0.00,Wunderground v.1.15,2013-11-10 19:00:00,
2013-11-10 14:10:00,71.8,41.9,30.21,NNW,340,5.0,8.0,34,0.00,,,0.00,Wunderground v.1.15,2013-11-10 19:10:00,
2013-11-10 14:15:00,71.9,42.8,30.21,West,271,4.0,8.0,35,0.00,,,0.00,Wunderground v.1.15,2013-11-10 19:15:00,
2013-11-10 14:20:00,72.1,42.2,30.21,North,360,3.0,10.0,34,0.00,,,0.00,Wunderground v.1.15,2013-11-10 19:20:00,
2013-11-10 14:30:00,71.9,42.8,30.21,SSW,213,4.0,4.0,35,0.00,,,0.00,Wunderground v.1.15,2013-11-10 19:30:00,
2013-11-10 14:35:00,72.0,43.6,30.21,West,277,3.0,4.0,36,0.00,,,0.00,Wunderground v.1.15,2013-11-10 19:35:00,
2013-11-10 14:40:00,72.4,42.4,30.21,WSW,255,2.0,2.0,34,0.00,,,0.00,Wunderground v.1.15,2013-11-10 19:40:00,
2013-11-10 14:45:00,73.0,43.7,30.21,NNW,343,2.0,4.0,35,0.00,,,0.00,Wunderground v.1.15,2013-11-10 19:45:00,
2013-11-10 14:55:00,72.6,44.1,30.20,West,263,3.0,3.0,36,0.00,,,0.00,Wunderground v.1.15,2013-11-10 19:55:00,
2013-11-10 15:00:00,72.5,43.3,30.20,NW,305,3.0,3.0,35,0.00,,,0.00,Wunderground v.1.15,2013-11-10 20:00:00,
2013-11-10 15:05:00,72.7,44.2,30.20,SW,235,3.0,3.0,36,0.00,,,0.00,Wunderground v.1.15,2013-11-10 20:05:00,
2013-11-10 15:10:00,72.7,44.2,30.20,WNW,303,3.0,3.0,36,0.00,,,0.00,Wunderground v.1.15,2013-11-10 20:10:00,
2013-11-10 15:20:00,72.5,44.0,30.20,North,360,4.0,4.0,36,0.00,,,0.00,Wunderground v.1.15,2013-11-10 20:20:00,
2013-11-10 15:30:00,72.0,45.0,30.20,NNW,342,4.0,4.0,38,0.00,,,0.00,Wunderground v.1.15,2013-11-10 20:30:00,
2013-11-10 15:35:00,72.4,44.6,30.20,NNW,344,4.0,4.0,37,0.00,,,0.00,Wunderground v.1.15,2013-11-10 20:35:00,
2013-11-10 15:40:00,72.6,45.5,30.21,NNW,334,4.0,5.0,38,0.00,,,0.00,Wunderground v.1.15,2013-11-10 20:40:00,
2013-11-10 15:45:00,72.5,45.4,30.20,WSW,242,3.0,5.0,38,0.00,,,0.00,Wunderground v.1.15,2013-11-10 20:45:00,
2013-11-10 15:55:00,72.3,45.9,30.21,WSW,241,1.0,2.0,39,0.00,,,0.00,Wunderground v.1.15,2013-11-10 20:55:00,
2013-11-10 16:00:00,72.3,45.3,30.20,WSW,241,0.0,0.0,38,0.00,,,0.00,Wunderground v.1.15,2013-11-10 21:00:00,
2013-11-10 16:05:00,72.3,45.9,30.21,SW,234,0.0,0.0,39,0.00,,,0.00,Wunderground v.1.15,2013-11-10 21:05:00,
2013-11-10 16:10:00,72.3,47.9,30.21,SW,234,0.0,0.0,42,0.00,,,0.00,Wunderground v.1.15,2013-11-10 21:10:00,
2013-11-10 16:20:00,72.0,46.3,30.21,SW,228,0.0,1.0,40,0.00,,,0.00,Wunderground v.1.15,2013-11-10 21:20:00,
2013-11-10 16:25:00,71.7,48.0,30.21,SW,228,0.0,1.0,43,0.00,,,0.00,Wunderground v.1.15,2013-11-10 21:25:00,
2013-11-10 16:30:00,71.3,47.6,30.21,SW,227,0.0,0.0,43,0.00,,,0.00,Wunderground v.1.15,2013-11-10 21:30:00,
2013-11-10 16:40:00,70.2,47.9,30.21,SW,228,0.0,0.0,45,0.00,,,0.00,Wunderground v.1.15,2013-11-10 21:40:00,
2013-11-10 16:45:00,69.2,49.8,30.21,SW,228,0.0,0.0,50,0.00,,,0.00,Wunderground v.1.15,2013-11-10 21:45:00,
2013-11-10 16:50:00,68.0,49.7,30.21,SW,228,0.0,0.0,52,0.00,,,0.00,Wunderground v.1.15,2013-11-10 21:50:00,
2013-11-10 16:55:00,66.9,50.2,30.21,SW,228,0.0,0.0,55,0.00,,,0.00,Wunderground v.1.15,2013-11-10 21:55:00,
2013-11-10 17:00:00,65.9,50.2,30.21,SW,227,0.0,0.0,57,0.00,,,0.00,Wunderground v.1.15,2013-11-10 22:00:00,
2013-11-10 17:05:00,64.9,50.2,30.21,SW,227,0.0,0.0,59,0.00,,,0.00,Wunderground v.1.15,2013-11-10 22:05:00,
2013-11-10 17:15:00,63.1,50.7,30.21,SW,227,0.0,0.0,64,0.00,,,0.00,Wunderground v.1.15,2013-11-10 22:15:00,
2013-11-10 17:25:00,61.7,50.2,30.21,SW,228,0.0,0.0,66,0.00,,,0.00,Wunderground v.1.15,2013-11-10 22:25:00,
2013-11-10 17:30:00,61.1,50.5,30.21,SW,227,0.0,0.0,68,0.00,,,0.00,Wunderground v.1.15,2013-11-10 22:30:00,
2013-11-10 17:35:00,60.3,50.1,30.21,SW,227,0.0,0.0,69,0.00,,,0.00,Wunderground v.1.15,2013-11-10 22:35:00,
2013-11-10 17:40:00,59.6,50.2,30.21,SW,228,0.0,0.0,71,0.00,,,0.00,Wunderground v.1.15,2013-11-10 22:40:00,
2013-11-10 17:45:00,59.0,50.7,30.21,SW,228,0.0,0.0,74,0.00,,,0.00,Wunderground v.1.15,2013-11-10 22:45:00,
2013-11-10 17:50:00,58.3,50.4,30.21,SW,228,0.0,0.0,75,0.00,,,0.00,Wunderground v.1.15,2013-11-10 22:50:00,
2013-11-10 17:55:00,57.7,49.5,30.21,SW,228,0.0,0.0,74,0.00,,,0.00,Wunderground v.1.15,2013-11-10 22:55:00,
2013-11-10 18:05:00,56.6,49.5,30.22,SW,228,0.0,0.0,77,0.00,,,0.00,Wunderground v.1.15,2013-11-10 23:05:00,
2013-11-10 18:10:00,56.0,49.6,30.22,SW,228,0.0,0.0,79,0.00,,,0.00,Wunderground v.1.15,2013-11-10 23:10:00,
2013-11-10 18:15:00,55.6,49.5,30.22,SW,227,0.0,0.0,80,0.00,,,0.00,Wunderground v.1.15,2013-11-10 23:15:00,
2013-11-10 18:20:00,55.1,49.0,30.22,SW,227,0.0,0.0,80,0.00,,,0.00,Wunderground v.1.15,2013-11-10 23:20:00,
2013-11-10 18:25:00,54.7,48.6,30.23,SW,228,0.0,0.0,80,0.00,,,0.00,Wunderground v.1.15,2013-11-10 23:25:00,
2013-11-10 18:30:00,54.3,48.6,30.23,SW,228,0.0,0.0,81,0.00,,,0.00,Wunderground v.1.15,2013-11-10 23:30:00,
2013-11-10 18:40:00,53.6,48.2,30.23,SW,227,0.0,0.0,82,0.00,,,0.00,Wunderground v.1.15,2013-11-10 23:40:00,
2013-11-10 18:45:00,53.3,48.3,30.23,SW,228,0.0,0.0,83,0.00,,,0.00,Wunderground v.1.15,2013-11-10 23:45:00,
2013-11-10 18:50:00,53.0,48.0,30.23,SW,228,0.0,0.0,83,0.00,,,0.00,Wunderground v.1.15,2013-11-10 23:50:00,
2013-11-10 19:00:00,52.4,47.7,30.23,SW,228,0.0,0.0,84,0.00,,,0.00,Wunderground v.1.15,2013-11-11 00:00:00,
2013-11-10 19:05:00,52.2,47.5,30.23,SW,228,0.0,0.0,84,0.00,,,0.00,Wunderground v.1.15,2013-11-11 00:05:00,
2013-11-10 19:10:00,51.9,47.2,30.23,SW,228,0.0,0.0,84,0.00,,,0.00,Wunderground v.1.15,2013-11-11 00:10:00,
2013-11-10 19:15:00,51.6,46.9,30.23,SW,228,0.0,0.0,84,0.00,,,0.00,Wunderground v.1.15,2013-11-11 00:15:00,
2013-11-10 19:25:00,51.2,46.8,30.23,SW,227,0.0,0.0,85,0.00,,,0.00,Wunderground v.1.15,2013-11-11 00:25:00,
2013-11-10 19:30:00,51.1,47.1,30.23,SW,227,0.0,0.0,86,0.00,,,0.00,Wunderground v.1.15,2013-11-11 00:30:00,
2013-11-10 19:40:00,50.7,47.0,30.23,SW,227,0.0,0.0,87,0.00,,,0.00,Wunderground v.1.15,2013-11-11 00:40:00,
2013-11-10 19:45:00,50.5,46.8,30.23,SW,228,0.0,0.0,87,0.00,,,0.00,Wunderground v.1.15,2013-11-11 00:45:00,
2013-11-10 19:50:00,50.4,46.7,30.23,SW,227,0.0,0.0,87,0.00,,,0.00,Wunderground v.1.15,2013-11-11 00:50:00,
2013-11-10 20:00:00,50.1,46.4,30.23,SW,227,0.0,0.0,87,0.00,,,0.00,Wunderground v.1.15,2013-11-11 01:00:00,
2013-11-10 20:10:00,49.7,46.0,30.23,SW,228,0.0,0.0,87,0.00,,,0.00,Wunderground v.1.15,2013-11-11 01:10:00,
2013-11-10 20:15:00,49.5,45.8,30.23,SW,227,0.0,0.0,87,0.00,,,0.00,Wunderground v.1.15,2013-11-11 01:15:00,
2013-11-10 20:20:00,49.3,45.6,30.23,SW,227,0.0,0.0,87,0.00,,,0.00,Wunderground v.1.15,2013-11-11 01:20:00,
2013-11-10 20:25:00,49.2,45.8,30.23,SW,228,0.0,0.0,88,0.00,,,0.00,Wunderground v.1.15,2013-11-11 01:25:00,
2013-11-10 20:30:00,49.0,45.6,30.23,SW,228,0.0,0.0,88,0.00,,,0.00,Wunderground v.1.15,2013-11-11 01:30:00,
2013-11-10 20:35:00,48.8,45.7,30.23,SW,227,0.0,0.0,89,0.00,,,0.00,Wunderground v.1.15,2013-11-11 01:35:00,
2013-11-10 20:45:00,48.5,45.4,30.23,SW,228,0.0,1.0,89,0.00,,,0.00,Wunderground v.1.15,2013-11-11 01:45:00,
2013-11-10 20:55:00,48.3,45.2,30.23,SW,227,0.0,0.0,89,0.00,,,0.00,Wunderground v.1.15,2013-11-11 01:55:00,
2013-11-10 21:00:00,48.1,45.0,30.23,SW,227,0.0,0.0,89,0.00,,,0.00,Wunderground v.1.15,2013-11-11 02:00:00,
2013-11-10 21:05:00,47.9,45.1,30.23,SW,228,0.0,0.0,90,0.00,,,0.00,Wunderground v.1.15,2013-11-11 02:05:00,
2013-11-10 21:10:00,47.8,45.0,30.23,SW,228,0.0,0.0,90,0.00,,,0.00,Wunderground v.1.15,2013-11-11 02:10:00,
2013-11-10 21:15:00,47.8,45.0,30.23,SW,228,0.0,1.0,90,0.00,,,0.00,Wunderground v.1.15,2013-11-11 02:15:00,
2013-11-10 21:25:00,48.1,45.3,30.23,SW,228,0.0,0.0,90,0.00,,,0.00,Wunderground v.1.15,2013-11-11 02:25:00,
2013-11-10 21:30:00,48.0,45.2,30.24,SW,227,0.0,0.0,90,0.00,,,0.00,Wunderground v.1.15,2013-11-11 02:30:00,
2013-11-10 21:35:00,47.9,44.8,30.24,SW,227,0.0,0.0,89,0.00,,,0.00,Wunderground v.1.15,2013-11-11 02:35:00,
2013-11-10 21:40:00,47.8,45.0,30.24,SW,228,0.0,0.0,90,0.00,,,0.00,Wunderground v.1.15,2013-11-11 02:40:00,
2013-11-10 21:50:00,47.7,44.9,30.24,SW,227,0.0,0.0,90,0.00,,,0.00,Wunderground v.1.15,2013-11-11 02:50:00,
2013-11-10 21:55:00,47.5,44.7,30.24,SW,228,0.0,0.0,90,0.00,,,0.00,Wunderground v.1.15,2013-11-11 02:55:00,
2013-11-10 22:00:00,47.3,44.5,30.24,SW,227,0.0,0.0,90,0.00,,,0.00,Wunderground v.1.15,2013-11-11 03:00:00,
2013-11-10 22:10:00,46.8,44.3,30.24,SW,227,0.0,0.0,91,0.00,,,0.00,Wunderground v.1.15,2013-11-11 03:10:00,
2013-11-10 22:15:00,46.5,44.0,30.24,SW,227,0.0,0.0,91,0.00,,,0.00,Wunderground v.1.15,2013-11-11 03:15:00,
2013-11-10 22:25:00,46.2,44.0,30.24,SW,228,0.0,0.0,92,0.00,,,0.00,Wunderground v.1.15,2013-11-11 03:25:00,
2013-11-10 22:30:00,46.1,43.9,30.24,SW,227,0.0,0.0,92,0.00,,,0.00,Wunderground v.1.15,2013-11-11 03:30:00,
2013-11-10 22:35:00,46.0,43.8,30.24,SW,228,0.0,0.0,92,0.00,,,0.00,Wunderground v.1.15,2013-11-11 03:35:00,
2013-11-10 22:40:00,45.8,43.6,30.24,SW,228,0.0,0.0,92,0.00,,,0.00,Wunderground v.1.15,2013-11-11 03:40:00,
2013-11-10 22:45:00,45.8,43.6,30.24,SW,228,0.0,0.0,92,0.00,,,0.00,Wunderground v.1.15,2013-11-11 03:45:00,
2013-11-10 22:55:00,45.9,43.7,30.24,SW,228,0.0,0.0,92,0.00,,,0.00,Wunderground v.1.15,2013-11-11 03:55:00,
2013-11-10 23:00:00,46.0,43.8,30.24,SW,227,0.0,0.0,92,0.00,,,0.00,Wunderground v.1.15,2013-11-11 04:00:00,
2013-11-10 23:05:00,46.1,43.9,30.24,SW,228,0.0,0.0,92,0.00,,,0.00,Wunderground v.1.15,2013-11-11 04:05:00,
2013-11-10 23:10:00,46.2,44.0,30.24,SW,228,0.0,0.0,92,0.00,,,0.00,Wunderground v.1.15,2013-11-11 04:10:00,
2013-11-10 23:15:00,46.5,44.0,30.24,SW,230,1.0,2.0,91,0.00,,,0.00,Wunderground v.1.15,2013-11-11 04:15:00,
2013-11-10 23:25:00,47.5,43.8,30.24,NW,323,1.0,2.0,87,0.00,,,0.00,Wunderground v.1.15,2013-11-11 04:25:00,
2013-11-10 23:30:00,47.4,43.4,30.24,NW,324,0.0,0.0,86,0.00,,,0.00,Wunderground v.1.15,2013-11-11 04:30:00,
2013-11-10 23:40:00,46.5,42.8,30.24,NW,323,0.0,0.0,87,0.00,,,0.00,Wunderground v.1.15,2013-11-11 04:40:00,
2013-11-10 23:45:00,46.1,42.4,30.24,NW,324,0.0,0.0,87,0.00,,,0.00,Wunderground v.1.15,2013-11-11 04:45:00,
2013-11-10 23:55:00,45.5,42.4,30.24,NW,324,0.0,0.0,89,0.00,,,0.00,Wunderground v.1.15,2013-11-11 04:55:00,